User: anonymous   Login
Location: Natural Bridges National Monument
(37.6093°N, 109.9767°W)
Time: 00:55:51
(UTC-06:00)
Language:

Cosmos 1727 Rocket - Orbit

View from above orbital plane
View from above orbital plane
View from above satellite
View from above satellite

Ground track
Ground track

The orbit data is extracted from the following two-line orbital elements,

1 16511U 86008B   14304.84286579  .00000087  00000-0  73330-4 0  6113
2 16511 082.9475 211.3320 0025633 083.3640 339.6536 13.75773052444362
Epoch (UTC): 31 October 2014 20:13:43
Eccentricity: 0.0025633
inclination: 82.9475°
perigee height: 960 km
apogee height: 998 km
right ascension of ascending node: 211.3320°
argument of perigee: 83.3640°
revolutions per day: 13.75773052
mean anomaly at epoch: 339.6536°
orbit number at epoch: 44436

The dashed part of the orbit path shows where the satellite is in the earth's shadow,  

DLR